Orbital Elements at Epoch 2459000.5 (2020-May-31.0) TDB
Reference: JPL 38 (heliocentric ecliptic J2000)
Element | Value | Uncertainty (1-sigma) | Units |
e | .2457429666223628 | 1.0595e-07 | |
a | 1.362335314358109 | 8.1324e-09 | au |
q | 1.027550992673338 | 1.4218e-07 | au |
i | 27.15704427667384 | 2.6e-05 | deg |
node | 132.1877818284046 | 1.6941e-05 | deg |
peri | 144.6679088803887 | 2.4165e-05 | deg |
M | 254.9290163656628 | 1.9894e-05 | deg |
tp | 2459170.013677542875 (2020-Nov-16.51367754) | 3.2723e-05 | TDB |
period | 580.7971126244593 1.59 | 5.2005e-06 1.424e-08 | d yr |
n | .6198377921909097 | 5.5501e-09 | deg/d |
Q | 1.697119636042881 | 1.0131e-08 | au |
|
| | Orbit Determination Parameters
Additional Information
|